Aspen, CO

11:37 PM MDT on August 29, 2016 (GMT -0600)
Aspen-Pitkin County / Sardy Field

Weather History for KASE - March, 2013

Change the Weather History Date:

Monday, March 18, 2013

  Actual Average Record
Temperature  
Mean Temperature 31 °F 32 °F  
Max Temperature 39 °F 44 °F 61 °F (2007)
Min Temperature 23 °F 20 °F 2 °F (1988)
Degree Days  
Heating Degree Days 34 33  
Month to date heating degree days 596 651  
Since 1 July heating degree days 6612 6970  
Cooling Degree Days 0 0  
Month to date cooling degree days 0 0  
Year to date cooling degree days 0 0  
Moisture  
Dew Point 9 °F    
Average Humidity 43    
Maximum Humidity 60    
Minimum Humidity 25    
Precipitation  
Precipitation 0.00 in 0.04 in 0.60 in (1984)
Month to date precipitation 0.54 0.70  
Year to date precipitation 1.69 2.94  
Sea Level Pressure  
Sea Level Pressure 29.87 in    
Wind  
Wind Speed 6 mph (NNW)    
Max Wind Speed 20 mph    
Max Gust Speed 31 mph    
Visibility 10 miles    
Events      
T = Trace of Precipitation, MM = Missing Value Source: NWS Daily Summary

Daily Weather History Graph

Daily Weather History Graph

Search for Another Location

Airport or City:

Trip Planner

Search our weather history database for the weather conditions in past years. The results will help you decide how hot, cold, wet, or windy it might be!

Date:

Astronomy

Mar. 18, 2013 Rise Set
Actual Time 7:13 AM MDT 7:17 PM MDT
Civil Twilight 6:46 AM MDT 7:44 PM MDT
Nautical Twilight 6:15 AM MDT 8:15 PM MDT
Astronomical Twilight 5:44 AM MDT 8:47 PM MDT
Moon 11:17 AM MDT (3/18) 1:17 AM MDT (3/18)
Length of Visible Light 12h 57m
Length of Day
12h 04m
Waxing Crescent, 41% of the Moon is Illuminated
Mar 18
Waxing Crescent
Mar 19
First Quarter
Mar 27
Full
Apr 2
Last Quarter
Apr 10
New

Hourly Weather History & Observations

Time (MDT) Temp. Windchill Dew Point Humidity Pressure Visibility Wind Dir Wind Speed Gust Speed Precip Events Conditions
12:53 AM 28.9 °F 19.2 °F 7.0 °F 40% 29.79 in 10.0 mi NNW 11.5 mph 20.7 mph N/A   Mostly Cloudy
1:53 AM 27.0 °F 18.0 °F 8.1 °F 45% 29.81 in 10.0 mi NNW 9.2 mph - N/A   Clear
2:53 AM 25.0 °F - 8.1 °F 49% 29.85 in 10.0 mi Calm Calm - N/A   Mostly Cloudy
3:53 AM 25.0 °F - 10.0 °F 53% 29.83 in 10.0 mi Calm Calm - N/A   Overcast
4:53 AM 24.1 °F - 10.0 °F 55% 29.83 in 10.0 mi Calm Calm - N/A   Mostly Cloudy
5:53 AM 24.1 °F - 12.0 °F 60% 29.84 in 10.0 mi Calm Calm - N/A   Overcast
6:53 AM 24.1 °F - 10.0 °F 55% 29.87 in 10.0 mi Calm Calm - N/A   Overcast
7:53 AM 25.0 °F 20.7 °F 10.0 °F 53% 29.87 in 10.0 mi North 3.5 mph - N/A   Mostly Cloudy
8:53 AM 26.1 °F 19.4 °F 9.0 °F 49% 29.90 in 10.0 mi NNW 5.8 mph - N/A   Mostly Cloudy
9:53 AM 27.0 °F 18.0 °F 10.9 °F 51% 29.92 in 10.0 mi North 9.2 mph - N/A   Mostly Cloudy
10:53 AM 28.0 °F 24.2 °F 12.0 °F 51% 29.93 in 10.0 mi Variable 3.5 mph - N/A   Mostly Cloudy
11:53 AM 32.0 °F 23.0 °F 10.9 °F 42% 29.90 in 10.0 mi North 11.5 mph 20.7 mph N/A   Mostly Cloudy
12:53 PM 34.0 °F 23.4 °F 14.0 °F 44% 29.88 in 10.0 mi North 17.3 mph 25.3 mph N/A   Overcast
1:53 PM 36.0 °F 26.7 °F 12.0 °F 37% 29.86 in 10.0 mi North 15.0 mph 25.3 mph N/A   Mostly Cloudy
2:53 PM 37.0 °F 28.1 °F 7.0 °F 29% 29.86 in 10.0 mi North 15.0 mph 29.9 mph N/A   Scattered Clouds
3:53 PM 36.0 °F 29.6 °F 5.0 °F 27% 29.85 in 10.0 mi WNW 8.1 mph 23.0 mph N/A   Mostly Cloudy
4:53 PM 37.9 °F 29.2 °F 6.1 °F 27% 29.86 in 10.0 mi NNW 15.0 mph 28.8 mph N/A   Mostly Cloudy
5:53 PM 39.0 °F 33.4 °F 7.0 °F 27% 29.85 in 10.0 mi NNW 8.1 mph 25.3 mph N/A   Mostly Cloudy
6:53 PM 36.0 °F 31.1 °F 9.0 °F 33% 29.88 in 10.0 mi Variable 5.8 mph - N/A   Partly Cloudy
7:53 PM 36.0 °F - 6.1 °F 29% 29.88 in 10.0 mi Calm Calm - N/A   Scattered Clouds
8:53 PM 35.1 °F 32.2 °F 7.0 °F 31% 29.90 in 10.0 mi Variable 3.5 mph - N/A   Scattered Clouds
9:53 PM 35.1 °F - 6.1 °F 30% 29.91 in 10.0 mi Calm Calm - N/A   Scattered Clouds
10:53 PM 34.0 °F 27.2 °F 10.9 °F 38% 29.93 in 10.0 mi North 8.1 mph 17.3 mph N/A   Clear
11:53 PM 32.0 °F 27.5 °F 12.0 °F 44% 29.95 in 10.0 mi NNW 4.6 mph - N/A   Scattered Clouds